EN

Hourly Weather Goenka

Today, 19 May, Wednesday

Time Temperature Precipitation Wind Pressure Humidity
00:00 +13°C° 0 mm 1 mps 734 mmHg 95%
01:00 +13°C° 0 mm 1 mps 734 mmHg 95%
02:00 +11°C° 0 mm 0 mps 734 mmHg 94%
03:00 +13°C° 0.2 mm 1 mps 734 mmHg 95%
04:00 +13°C° 0.2 mm 1 mps 734 mmHg 95%
05:00 +13°C° 0.2 mm 1 mps 734 mmHg 96%
06:00 +13°C° 0.6 mm 1 mps 734 mmHg 96%
07:00 +13°C° 0.6 mm 1 mps 734 mmHg 96%
08:00 +13°C° 0.6 mm 1 mps 734 mmHg 96%
09:00 +14°C° 1.1 mm 1 mps 735 mmHg 96%
10:00 +14°C° 1.1 mm 1 mps 735 mmHg 95%
11:00 +14°C° 1.1 mm 1 mps 735 mmHg 94%
12:00 +14°C° 0.6 mm 2 mps 735 mmHg 93%
13:00 +13°C° 0.6 mm 3 mps 736 mmHg 92%
14:00 +13°C° 0.6 mm 4 mps 736 mmHg 92%
15:00 +12°C° 0.2 mm 4 mps 736 mmHg 92%
16:00 +12°C° 0.2 mm 4 mps 737 mmHg 93%
17:00 +11°C° 0.2 mm 4 mps 737 mmHg 93%
18:00 +11°C° 0.1 mm 4 mps 737 mmHg 93%
19:00 +10°C° 0.1 mm 4 mps 738 mmHg 94%
20:00 +10°C° 0.1 mm 3 mps 738 mmHg 94%
21:00 +10°C° 0 mm 3 mps 738 mmHg 94%
22:00 +10°C° 0 mm 3 mps 738 mmHg 95%
23:00 +9°C° 0 mm 3 mps 738 mmHg 95%

Tomorrow, 20 May, Thursday

Time Temperature Precipitation Wind Pressure Humidity
00:00 +8°C° 0 mm 4 mps 738 mmHg 95%
01:00 +8°C° 0 mm 4 mps 738 mmHg 94%
02:00 +8°C° 0 mm 5 mps 738 mmHg 94%
03:00 +8°C° 0 mm 5 mps 737 mmHg 94%
04:00 +8°C° 0 mm 5 mps 737 mmHg 93%
05:00 +8°C° 0 mm 5 mps 737 mmHg 93%
06:00 +8°C° 0.6 mm 5 mps 737 mmHg 93%
07:00 +8°C° 0.6 mm 6 mps 737 mmHg 92%
08:00 +8°C° 0.6 mm 6 mps 737 mmHg 91%
09:00 +8°C° 1.3 mm 6 mps 737 mmHg 90%
10:00 +9°C° 1.3 mm 7 mps 737 mmHg 89%
11:00 +9°C° 1.3 mm 7 mps 737 mmHg 88%
12:00 +10°C° 0.3 mm 7 mps 737 mmHg 83%
13:00 +11°C° 0.3 mm 7 mps 738 mmHg 78%
14:00 +12°C° 0.3 mm 7 mps 738 mmHg 74%
15:00 +13°C° 0 mm 6 mps 738 mmHg 72%
16:00 +14°C° 0 mm 6 mps 738 mmHg 71%
17:00 +14°C° 0 mm 5 mps 739 mmHg 69%
18:00 +13°C° 0 mm 5 mps 739 mmHg 73%
19:00 +12°C° 0 mm 4 mps 740 mmHg 77%
20:00 +11°C° 0 mm 3 mps 740 mmHg 82%
21:00 +10°C° 0 mm 3 mps 740 mmHg 84%
22:00 +10°C° 0 mm 3 mps 741 mmHg 86%
23:00 +9°C° 0 mm 3 mps 741 mmHg 88%

Day after tomorrow, 21 May, Friday

Time Temperature Precipitation Wind Pressure Humidity
00:00 +8°C° 0 mm 3 mps 742 mmHg 90%
01:00 +8°C° 0 mm 3 mps 742 mmHg 92%
02:00 +7°C° 0 mm 3 mps 742 mmHg 94%
03:00 +7°C° 0 mm 3 mps 743 mmHg 94%
04:00 +7°C° 0 mm 3 mps 743 mmHg 95%
05:00 +5°C° 0 mm 3 mps 743 mmHg 95%
06:00 +8°C° 0 mm 3 mps 744 mmHg 86%
07:00 +10°C° 0 mm 3 mps 744 mmHg 78%
08:00 +11°C° 0 mm 3 mps 745 mmHg 69%
09:00 +12°C° 0 mm 4 mps 745 mmHg 62%
10:00 +13°C° 0 mm 4 mps 745 mmHg 56%
11:00 +14°C° 0 mm 4 mps 745 mmHg 49%
12:00 +15°C° 0 mm 4 mps 745 mmHg 48%
13:00 +15°C° 0 mm 4 mps 745 mmHg 48%
14:00 +17°C° 0 mm 4 mps 745 mmHg 47%
15:00 +17°C° 0 mm 4 mps 745 mmHg 49%
16:00 +17°C° 0 mm 3 mps 745 mmHg 52%
17:00 +17°C° 0 mm 3 mps 745 mmHg 54%
18:00 +15°C° 0 mm 2 mps 746 mmHg 61%
19:00 +13°C° 0 mm 2 mps 746 mmHg 67%
20:00 +11°C° 0 mm 1 mps 746 mmHg 73%
21:00 +11°C° 0 mm 1 mps 746 mmHg 73%
22:00 +10°C° 0 mm 1 mps 746 mmHg 73%
23:00 +9°C° 0 mm 2 mps 746 mmHg 72%

22 May, Saturday

Time Temperature Precipitation Wind Pressure Humidity
00:00 +8°C° 0 mm 2 mps 746 mmHg 75%
01:00 +8°C° 0 mm 2 mps 746 mmHg 77%
02:00 +7°C° 0 mm 2 mps 746 mmHg 80%
03:00 +8°C° 0 mm 2 mps 746 mmHg 80%
04:00 +8°C° 0 mm 3 mps 746 mmHg 81%
05:00 +8°C° 0 mm 3 mps 746 mmHg 81%
06:00 +10°C° 0 mm 3 mps 746 mmHg 76%
07:00 +12°C° 0 mm 4 mps 746 mmHg 71%
08:00 +14°C° 0 mm 4 mps 745 mmHg 66%
09:00 +15°C° 0 mm 4 mps 745 mmHg 61%
10:00 +16°C° 0 mm 5 mps 745 mmHg 57%
11:00 +17°C° 0 mm 5 mps 745 mmHg 53%
12:00 +19°C° 0 mm 5 mps 745 mmHg 51%
13:00 +19°C° 0 mm 4 mps 745 mmHg 49%
14:00 +20°C° 0 mm 4 mps 744 mmHg 47%
15:00 +20°C° 0 mm 4 mps 744 mmHg 51%
16:00 +19°C° 0 mm 4 mps 744 mmHg 55%
17:00 +19°C° 0 mm 4 mps 743 mmHg 59%
18:00 +18°C° 0 mm 4 mps 743 mmHg 65%
19:00 +15°C° 0 mm 4 mps 743 mmHg 71%
20:00 +13°C° 0 mm 4 mps 743 mmHg 77%
21:00 +13°C° 0 mm 3 mps 743 mmHg 77%
22:00 +13°C° 0 mm 3 mps 742 mmHg 77%
23:00 +12°C° 0 mm 3 mps 742 mmHg 77%

23 May, Sunday

Time Temperature Precipitation Wind Pressure Humidity
00:00 +12°C° 0 mm 3 mps 742 mmHg 79%
01:00 +12°C° 0 mm 3 mps 741 mmHg 81%
02:00 +11°C° 0 mm 3 mps 741 mmHg 83%
03:00 +11°C° 0 mm 3 mps 741 mmHg 84%
04:00 +11°C° 0 mm 4 mps 740 mmHg 86%
05:00 +11°C° 0 mm 4 mps 740 mmHg 87%
06:00 +12°C° 0.2 mm 4 mps 739 mmHg 87%
07:00 +13°C° 0.2 mm 5 mps 739 mmHg 88%
08:00 +14°C° 0.2 mm 5 mps 738 mmHg 88%
09:00 +14°C° 0.6 mm 5 mps 738 mmHg 87%
10:00 +14°C° 0.6 mm 5 mps 737 mmHg 86%
11:00 +14°C° 0.6 mm 5 mps 737 mmHg 86%
12:00 +14°C° 0.6 mm 5 mps 736 mmHg 88%
13:00 +13°C° 0.6 mm 5 mps 736 mmHg 90%
14:00 +13°C° 0.6 mm 4 mps 735 mmHg 93%
15:00 +12°C° 1.7 mm 5 mps 735 mmHg 93%
16:00 +10°C° 1.7 mm 5 mps 735 mmHg 94%
17:00 +10°C° 1.7 mm 6 mps 735 mmHg 94%
18:00 +9°C° 0.2 mm 6 mps 736 mmHg 93%
19:00 +9°C° 0.2 mm 6 mps 737 mmHg 91%
20:00 +9°C° 0.2 mm 7 mps 737 mmHg 90%
21:00 +9°C° 0 mm 7 mps 738 mmHg 90%
22:00 +9°C° 0 mm 7 mps 738 mmHg 90%
23:00 +9°C° 0 mm 7 mps 738 mmHg 90%

24 May, Monday

Time Temperature Precipitation Wind Pressure Humidity
00:00 +8°C° 0 mm 7 mps 739 mmHg 89%
01:00 +8°C° 0 mm 7 mps 740 mmHg 87%
02:00 +6°C° 0 mm 7 mps 740 mmHg 85%
03:00 +6°C° 0 mm 7 mps 741 mmHg 85%
04:00 +5°C° 0 mm 6 mps 742 mmHg 85%
05:00 +5°C° 0 mm 6 mps 742 mmHg 85%
06:00 +7°C° 0 mm 6 mps 743 mmHg 80%
07:00 +8°C° 0 mm 6 mps 743 mmHg 75%
08:00 +9°C° 0 mm 7 mps 744 mmHg 70%
09:00 +10°C° 0 mm 7 mps 745 mmHg 65%
10:00 +11°C° 0 mm 7 mps 745 mmHg 59%
11:00 +14°C° 0 mm 7 mps 745 mmHg 54%
12:00 +14°C° 0 mm 7 mps 746 mmHg 53%
13:00 +15°C° 0 mm 6 mps 746 mmHg 51%
14:00 +15°C° 0 mm 6 mps 746 mmHg 49%
15:00 +15°C° 0 mm 6 mps 746 mmHg 53%
16:00 +15°C° 0 mm 6 mps 746 mmHg 57%
17:00 +15°C° 0 mm 5 mps 746 mmHg 60%
18:00 +14°C° 0 mm 5 mps 746 mmHg 64%
19:00 +13°C° 0 mm 5 mps 747 mmHg 67%
20:00 +12°C° 0 mm 4 mps 747 mmHg 70%
21:00 +12°C° 0 mm 5 mps 747 mmHg 72%
22:00 +12°C° 0 mm 5 mps 747 mmHg 73%
23:00 +12°C° 0 mm 5 mps 747 mmHg 75%
Show more